Terminal Aerodrome Forecast
Issued by NWS

Home | Current Version | Previous Version | Text Only | Print | Product List | Glossary On
Versions: 1 2 3 4 5 6 7 8 9 10 11 12 13 14 15 16 17
000
FTUS44 KHGX 241012 AAB
TAFUTS
TAF AMD
KUTS 241012Z 2410/2506 16004KT P6SM BKN018
     FM241600 18011KT P6SM SCT030
     FM242100 21010KT P6SM VCTS BKN040CB
     FM250300 36006KT P6SM FEW050 SCT250=

USA.gov is the U.S. government's official web portal to all federal, state and local government web resources and services.